Miscellaneous Local Product
Issued by NWS Hastings, NE

Home | Current Version | Previous Version | Graphics & Text | Print | Product List | Glossary On
Versions: 1 2 3 4 5 6 7 8 9 10 11 12 13 14 15 16 17 18 19 20 21 22 23 24 25 26 27 28 29 30 31 32 33 34 35 36 37 38 39 40 41 42 43 44 45 46 47 48 49 50
000
AXUS43 KGID 241902
MISGRI

GID CWA HOURLY WEATHER ROUNDUP
NATIONAL WEATHER SERVICE HASTINGS NE
200 PM CDT FRI APR 24 2015

NOTE: "FAIR" INDICATES FEW OR NO CLOUDS BELOW 12,000 FEET WITH NO
SIGNIFICANT WEATHER AND/OR OBSTRUCTIONS TO VISIBILITY.

...SOUTH CENTRAL NEBRASKA...

CITY           SKY/WX    TMP DP  RH WIND       PRES   REMARKS
GRAND ISLAND   NOT AVBL
HASTINGS       NOT AVBL
KEARNEY        CLOUDY    61  55  82 S10       29.63F
ORD            NOT AVBL
YORK           CLOUDY    63  55  77 S12       29.64F
AURORA         CLOUDY    63  57  82 S9        29.63F
LEXINGTON      CLOUDY    65  55  70 S7        29.61F
HOLDREGE       CLOUDY    61  55  79 CALM      29.61F
HEBRON         CLOUDY    62  54  75 S8        29.65F

...NEBRASKA PANHANDLE...

CITY           SKY/WX    TMP DP  RH WIND       PRES   REMARKS
CHADRON        NOT AVBL
ALLIANCE       NOT AVBL
SCOTTSBLUFF    NOT AVBL
SIDNEY         NOT AVBL

...WESTERN AND NORTH CENTRAL NEBRASKA...

CITY           SKY/WX    TMP DP  RH WIND       PRES   REMARKS
VALENTINE      NOT AVBL
AINSWORTH      SUNNY     74  41  30 SW7       29.55F
ONEILL         SUNNY     74  52  45 S13       29.56F
BROKEN BOW     NOT AVBL
NORTH PLATTE   NOT AVBL
MCCOOK         NOT AVBL

...EASTERN NEBRASKA...

CITY           SKY/WX    TMP DP  RH WIND       PRES   REMARKS
NORFOLK        SUNNY     69  55  60 S13G23    29.61F
COLUMBUS       CLOUDY    64  54  68 SW8       29.65F
ALBION         CLOUDY    64  54  68 SW12G18   29.63F
OMAHA EPPLEY   NOT AVBL
MILLARD        CLOUDY    65  54  67 S8        29.66F
LINCOLN        NOT AVBL
NEBRASKA CITY  CLOUDY    62  46  57 S14G20    29.69F
BEATRICE       CLOUDY    62  53  74 SE8       29.66F
FALLS CITY     NOT AVBL

...NORTHERN KANSAS...

CITY           SKY/WX    TMP DP  RH WIND       PRES   REMARKS
GOODLAND       NOT AVBL
HILL CITY      NOT AVBL
NORTON         MOCLDY    66  52  59 CALM      29.58F
BELOIT         CLOUDY    63  57  82 E8        29.60F
HAYS           CLOUDY    72  55  56 SE12      29.57F
RUSSELL        NOT AVBL
CONCORDIA      NOT AVBL



USA.gov is the U.S. government's official web portal to all federal, state and local government web resources and services.